Skip Page Navigation
NASA JPL Caltech
NASA Logo - Jet Propulsion Laboratory + View the NASA Portal
+ Near-Earth Object (NEO) Program
Search JPL
JPL Home Earth Solar System Stars & Galaxies Technology
JPL Solar System Dynamics
BODIES ORBITS EPHEMERIDES TOOLS PHYSICAL DATA DISCOVERY FAQ SITE MAP
JPL Small-Body Database Browser
Search: [ help ]  
34993 Euaimon (1973 SR1)
Classification: Jupiter Trojan          SPK-ID: 2034993
Ephemeris | Orbit Diagram | Orbital Elements | Physical Parameters | Discovery Circumstances ]

[ show orbit diagram ]
Orbital Elements at Epoch 2456400.5 (2013-Apr-18.0) TDB
Reference: MPO257109 (heliocentric ecliptic J2000)
 Element Value Uncertainty (1-sigma)   Units 
e 0.0561958 n/a  
a 5.1605110 n/a AU
q 4.8705120 n/a AU
i 8.89204 n/a deg
node 40.40327 n/a deg
peri 49.84487 n/a deg
M 36.60281 n/a deg
tp 2455965.1391112
(2012-Feb-07.63911120)
n/a JED
period 4281.9095033
11.72
n/a
n/a
d
yr
n 0.08407464 n/a deg/d
Q 5.4505100 n/a AU
  Orbit Determination Parameters
   # obs. used (total)      270  
   first obs. used      1973-??-??  
   last obs. used      2013-03-12  
   # oppositions      15  
   planetary ephem.      DE403  
   condition code      0  
   fit RMS      0.50  
   data source      MPC:mpn  
   producer      MPCLINUX  

Additional Information
 T_jup = 2.973 
 MPC Jupiter Trojan 

Ephemeris | Orbit Diagram | Orbital Elements | Physical Parameters | Discovery Circumstances ]

Physical Parameter Table
Parameter Symbol Value Units Sigma Reference Notes
absolute magnitude H 12.4 mag n/a PDS3 (MPO 24069)  

34993 Euaimon           Discovered 1973 Sept. 20 by C. J. van Houten and I. van Houten-Groeneveld on Palomar Schmidt plates taken by T. Gehrels.
Euaimon was the father of the Greek hero Eurypylos.
NOTE: some special characters may not display properly (any characters within {} are an attempt to place the proper accent above a character)
Reference: 20030318/MPCPages.arcLast Updated: 2003-10-02

Alternate Designations
 1973 SR1 = 1998 QT6 
Ephemeris | Orbit Diagram | Orbital Elements | Physical Parameters | Discovery Circumstances ]
ABOUT SSD CREDITS/AWARDS PRIVACY/COPYRIGHT GLOSSARY LINKS
FirstGov 2013-May-19 22:53 UT
(server date/time)  
NASA Home Page
Site Manager:   Donald K. Yeomans
Webmaster  Alan B. Chamberlin